EW9318 Weather Reports


Display with metric or nautical units.
time (UTC)temp
F
wind
direction
speed
MPH
gust
MPH
rain 1hr
in
rain 24hr
in
rain mn
in
humidity
%
barometer
mb
20260831073016 69 138 0.0 3.0 0.00 0.39 0.00 89 1014.2
20260831072517 69 148 1.0 3.0 0.00 0.39 0.00 89 1014.2
20260831072016 69 138 0.0 3.0 0.00 0.39 0.00 89 1014.2
20260831071517 69 139 0.0 2.0 0.00 0.39 0.00 89 1014.2
20260831071016 69 155 0.0 1.0 0.00 0.39 0.00 89 1014.2
20260831070536 69 0.0 3.0 0.00 0.39 0.00 89 1014.3
20260831070057 69 168 0.0 3.0 0.00 0.39 0.00 89 1014.3
20260831065515 69 194 0.0 3.0 0.00 0.39 0.00 89 1014.2
20260831065016 69 0.0 0.0 0.00 0.39 0.00 89 1014.2
20260831064516 69 0.0 1.0 0.00 0.39 0.00 89 1014.2
20260831064016 69 160 0.0 1.0 0.00 0.39 0.00 89 1014.1
20260831063516 69 155 0.0 3.0 0.00 0.39 0.00 89 1014.1
20260831063016 69 155 0.0 3.0 0.00 0.39 0.00 89 1014.1
20260831062516 69 136 0.0 2.0 0.00 0.39 0.00 89 1013.9
20260831062016 69 131 0.0 4.0 0.00 0.39 0.00 89 1013.8
20260831061517 69 144 1.0 4.0 0.00 0.39 0.00 89 1013.8
20260831061015 69 149 1.0 3.0 0.00 0.39 0.00 89 1013.7
20260831060517 69 150 0.0 4.0 0.00 0.39 0.00 89 1013.8
20260831060016 69 145 1.0 4.0 0.00 0.39 0.00 89 1013.8
20260831055516 69 150 1.0 4.0 0.00 0.39 0.00 89 1013.7
20260831055016 69 151 2.0 4.0 0.00 0.39 0.00 89 1014.0
20260831054516 69 160 1.0 6.0 0.00 0.39 0.00 89 1014.1
20260831054055 69 165 2.0 6.0 0.00 0.39 0.00 89 1014.1
20260831053516 69 147 2.0 6.0 0.00 0.39 0.00 89 1014.0
20260831053016 69 154 1.0 5.0 0.00 0.39 0.00 88 1014.0
20260831052516 69 137 1.0 4.0 0.00 0.39 0.00 88 1014.0
20260831052017 69 156 1.0 5.0 0.00 0.39 0.00 88 1014.2
20260831051516 69 150 1.0 5.0 0.00 0.39 0.00 88 1014.2
20260831051016 69 146 2.0 7.0 0.00 0.39 0.00 88 1014.1
20260831050515 69 147 3.0 7.0 0.00 0.39 0.00 88 1014.1
20260831050017 69 156 1.0 5.0 0.00 0.39 0.00 87 1014.2
20260831045536 69 154 1.0 6.0 0.00 0.39 0.00 87 1014.2
20260831045036 69 159 2.0 6.0 0.00 0.39 0.00 87 1014.2
20260831044515 69 153 2.0 6.0 0.00 0.39 0.00 87 1014.2
20260831044015 69 159 1.0 5.0 0.00 0.39 0.00 86 1014.2
20260831043515 70 146 3.0 7.0 0.00 0.39 0.00 86 1014.2
20260831043017 70 136 3.0 7.0 0.00 0.39 0.00 86 1014.1
20260831042515 70 148 1.0 5.0 0.00 0.39 0.00 85 1014.1
20260831042016 70 128 1.0 4.0 0.00 0.39 0.00 85 1014.2
20260831041515 70 130 2.0 5.0 0.00 0.39 0.00 85 1014.2
20260831041015 70 159 1.0 5.0 0.00 0.39 0.00 85 1014.2
20260831040534 70 157 1.0 1.0 0.00 0.39 0.00 85 1014.2
20260831040017 70 134 2.0 5.0 0.00 0.39 0.39 85 1014.0
20260831035516 70 139 0.0 6.0 0.00 0.39 0.39 85 1014.1
20260831035016 70 140 2.0 6.0 0.00 0.39 0.39 84 1014.1
20260831034536 70 132 2.0 6.0 0.00 0.39 0.39 84 1014.0
20260831034016 70 152 3.0 6.0 0.00 0.39 0.39 84 1014.1
20260831033516 70 157 2.0 6.0 0.00 0.39 0.39 84 1014.1
20260831033017 70 139 2.0 6.0 0.00 0.39 0.39 84 1014.0
20260831032617 70 124 3.0 6.0 0.00 0.39 0.39 84 1014.0
20260831032016 71 128 3.0 7.0 0.00 0.39 0.39 84 1014.0
20260831031516 71 152 3.0 9.0 0.00 0.39 0.39 84 1014.1
20260831031016 71 157 4.0 9.0 0.00 0.39 0.39 84 1014.2
20260831030516 71 155 2.0 9.0 0.00 0.39 0.39 84 1014.3
20260831030036 71 155 2.0 9.0 0.00 0.39 0.39 84 1014.2
20260831025556 71 179 2.0 6.0 0.00 0.39 0.39 84 1014.0
20260831025016 71 204 1.0 6.0 0.00 0.39 0.39 84 1014.2
20260831024516 71 224 0.0 4.0 0.00 0.39 0.39 85 1014.3
20260831024016 71 308 2.0 4.0 0.00 0.39 0.39 85 1014.1
20260831023516 71 53 2.0 9.0 0.00 0.39 0.39 85 1013.9
20260831023017 71 112 4.0 9.0 0.00 0.39 0.39 84 1013.5
20260831022517 71 121 2.0 5.0 0.00 0.39 0.39 84 1013.7
20260831022036 71 83 1.0 4.0 0.00 0.39 0.39 84 1013.8
20260831021516 71 117 2.0 6.0 0.00 0.39 0.39 84 1013.8
20260831021017 71 134 1.0 6.0 0.00 0.39 0.39 84 1013.8
20260831020517 71 159 3.0 7.0 0.00 0.39 0.39 84 1013.8
20260831020016 71 173 4.0 7.0 0.00 0.39 0.39 84 1013.9
20260831015516 71 170 3.0 7.0 0.00 0.39 0.39 83 1013.8
20260831015016 71 191 2.0 7.0 0.00 0.39 0.39 83 1014.0
20260831014516 72 217 3.0 6.0 0.00 0.39 0.39 83 1014.2
20260831014016 72 255 2.0 6.0 0.00 0.39 0.39 82 1014.2
20260831013516 72 257 1.0 5.0 0.00 0.39 0.39 83 1014.1
20260831013015 72 220 2.0 6.0 0.00 0.39 0.39 83 1014.0
20260831012516 72 202 2.0 6.0 0.00 0.39 0.39 82 1013.9
20260831012016 72 217 2.0 9.0 0.00 0.39 0.39 82 1013.8
20260831011517 72 202 3.0 9.0 0.00 0.39 0.39 82 1013.7
20260831011015 72 210 2.0 5.0 0.00 0.39 0.39 82 1013.7
20260831010537 72 227 2.0 5.0 0.00 0.39 0.39 82 1013.5
20260831010036 72 235 1.0 5.0 0.00 0.39 0.39 81 1013.5
20260831005516 72 232 2.0 5.0 0.00 0.39 0.39 81 1013.4
20260831005037 72 247 1.0 5.0 0.00 0.39 0.39 81 1013.3
20260831004516 72 199 2.0 5.0 0.00 0.39 0.39 81 1013.3
20260831004016 72 198 2.0 5.0 0.00 0.39 0.39 81 1013.2
20260831003516 73 192 2.0 4.0 0.00 0.39 0.39 81 1013.2
20260831003016 73 212 2.0 7.0 0.00 0.39 0.39 80 1013.3
20260831002517 73 230 3.0 7.0 0.00 0.39 0.39 79 1013.4
20260831002015 73 240 0.0 5.0 0.00 0.39 0.39 79 1013.3
20260831001516 73 242 1.0 5.0 0.00 0.39 0.39 79 1013.3
20260831001017 73 223 1.0 6.0 0.00 0.39 0.39 79 1013.3
20260831000516 73 243 1.0 7.0 0.00 0.39 0.39 79 1013.2
20260831000037 74 225 3.0 10.0 0.00 0.39 0.39 79 1013.3
20260830235515 74 238 6.0 14.0 0.00 0.39 0.39 78 1013.4
20260830235015 74 224 6.0 14.0 0.00 0.39 0.39 78 1013.4
20260830234516 74 235 5.0 13.0 0.00 0.39 0.39 78 1013.5
20260830234017 74 236 5.0 13.0 0.00 0.39 0.39 78 1013.5
20260830233535 74 233 5.0 11.0 0.00 0.39 0.39 77 1013.5
20260830233015 74 227 6.0 11.0 0.00 0.39 0.39 77 1013.4
20260830232516 74 227 5.0 11.0 0.00 0.39 0.39 77 1013.4
20260830232015 74 218 6.0 11.0 0.00 0.39 0.39 77 1013.4
20260830231515 75 208 3.0 10.0 0.00 0.39 0.39 77 1013.4
20260830231017 75 225 5.0 10.0 0.00 0.39 0.39 76 1013.5
20260830230557 75 203 4.0 9.0 0.00 0.39 0.39 76 1013.5
20260830230015 75 195 4.0 10.0 0.00 0.39 0.39 76 1013.6
20260830225535 75 222 4.0 10.0 0.00 0.39 0.39 75 1013.6
20260830225016 75 220 3.0 10.0 0.00 0.39 0.39 75 1013.6
20260830224515 75 231 6.0 12.0 0.00 0.39 0.39 74 1013.7
20260830224015 76 218 6.0 12.0 0.00 0.39 0.39 74 1013.7
20260830223515 76 220 6.0 11.0 0.00 0.39 0.39 73 1013.7
20260830223015 76 229 6.0 11.0 0.00 0.39 0.39 73 1013.6
20260830222516 76 236 5.0 14.0 0.00 0.39 0.39 72 1013.9
20260830222015 76 226 8.0 14.0 0.00 0.39 0.39 72 1013.7
20260830221515 77 235 7.0 14.0 0.00 0.39 0.39 71 1013.9
20260830221035 77 244 8.0 15.0 0.00 0.39 0.39 70 1013.9
20260830220516 77 225 8.0 15.0 0.00 0.39 0.39 70 1013.9
20260830220015 77 233 8.0 13.0 0.00 0.39 0.39 70 1013.9
20260830215515 77 225 7.0 13.0 0.00 0.39 0.39 69 1014.0
20260830215035 78 238 9.0 16.0 0.00 0.39 0.39 68 1014.2
20260830214515 78 229 10.0 16.0 0.00 0.39 0.39 67 1014.2
20260830214035 78 236 7.0 16.0 0.00 0.39 0.39 67 1014.2
20260830213515 78 231 9.0 16.0 0.00 0.39 0.39 67 1014.2
20260830213015 78 209 6.0 15.0 0.00 0.39 0.39 66 1014.1
20260830212535 79 223 9.0 16.0 0.00 0.39 0.39 66 1014.2
20260830212015 79 223 8.0 17.0 0.00 0.39 0.39 65 1014.2
20260830211516 79 225 8.0 17.0 0.00 0.39 0.39 65 1014.3
20260830211037 80 238 9.0 15.0 0.00 0.39 0.39 64 1014.3
20260830210515 80 218 8.0 19.0 0.00 0.39 0.39 64 1014.3
20260830210015 80 228 13.0 19.0 0.00 0.39 0.39 63 1014.3
20260830205515 80 245 9.0 16.0 0.00 0.39 0.39 63 1014.3
20260830205016 80 220 9.0 18.0 0.00 0.39 0.39 64 1014.2
20260830204515 80 227 9.0 18.0 0.00 0.39 0.39 63 1014.3
20260830204016 80 227 8.0 14.0 0.00 0.39 0.39 64 1014.2
20260830203515 81 227 7.0 16.0 0.00 0.39 0.39 63 1014.3
20260830203016 81 218 6.0 16.0 0.00 0.39 0.39 64 1014.1
20260830202515 80 225 6.0 12.0 0.00 0.39 0.39 66 1014.0
20260830202015 80 210 5.0 13.0 0.00 0.39 0.39 63 1013.9
20260830201515 80 214 6.0 20.0 0.00 0.39 0.39 62 1013.8
20260830201016 81 223 9.0 20.0 0.00 0.39 0.39 61 1013.8
20260830200516 81 222 11.0 20.0 0.00 0.39 0.39 61 1013.8
20260830200015 81 228 11.0 21.0 0.00 0.39 0.39 61 1013.7
20260830195515 81 200 9.0 21.0 0.00 0.39 0.39 61 1013.8
20260830195035 81 208 12.0 22.0 0.00 0.39 0.39 61 1013.8
20260830194515 81 185 7.0 22.0 0.00 0.39 0.39 62 1013.8
20260830194015 81 228 12.0 23.0 0.00 0.39 0.39 61 1013.7
20260830193535 81 237 14.0 24.0 0.01 0.39 0.39 61 1013.8
20260830193015 81 236 12.0 24.0 0.01 0.39 0.39 61 1013.8
20260830192515 81 216 12.0 20.0 0.01 0.39 0.39 62 1013.8
20260830192015 81 223 11.0 23.0 0.01 0.39 0.39 65 1013.7
20260830191515 81 192 10.0 23.0 0.02 0.39 0.39 64 1013.6
20260830191015 80 228 13.0 23.0 0.03 0.39 0.39 66 1013.6
20260830190515 80 185 11.0 23.0 0.03 0.39 0.39 66 1013.8
20260830190038 80 209 10.0 18.0 0.04 0.39 0.39 67 1013.6
20260830185517 80 201 9.0 21.0 0.04 0.39 0.39 68 1013.5
20260830185017 79 199 10.0 21.0 0.05 0.39 0.39 68 1013.6
20260830184516 79 193 10.0 19.0 0.05 0.39 0.39 68 1013.7
20260830184017 79 193 10.0 19.0 0.06 0.39 0.39 68 1013.6
20260830183537 79 200 8.0 23.0 0.06 0.38 0.38 69 1013.6
20260830183017 79 190 9.0 23.0 0.06 0.38 0.38 71 1013.6
20260830182517 78 177 9.0 21.0 0.06 0.38 0.38 71 1013.6
20260830182017 78 189 9.0 21.0 0.07 0.38 0.38 72 1013.6
20260830181537 78 191 7.0 22.0 0.06 0.37 0.37 73 1013.7
20260830181017 77 185 10.0 22.0 0.06 0.36 0.36 73 1013.7
20260830180518 77 178 9.0 26.0 0.06 0.36 0.36 75 1013.6
20260830180039 77 189 9.0 26.0 0.06 0.35 0.35 74 1013.7
20260830175537 76 211 11.0 23.0 0.06 0.35 0.35 74 1013.7
20260830175017 76 207 6.0 29.0 0.06 0.34 0.34 77 1013.8
20260830174517 76 199 11.0 29.0 0.06 0.34 0.34 76 1013.7
20260830174017 76 183 9.0 20.0 0.06 0.33 0.33 78 1013.7
20260830173537 75 182 8.0 17.0 0.05 0.32 0.32 78 1013.7
20260830173017 75 207 10.0 17.0 0.06 0.32 0.32 77 1013.9
20260830172517 75 193 7.0 18.0 0.07 0.32 0.32 77 1014.0
20260830172017 75 183 9.0 21.0 0.06 0.31 0.31 78 1014.0
20260830171517 74 180 9.0 21.0 0.07 0.31 0.31 80 1014.1
20260830171017 74 199 9.0 21.0 0.06 0.30 0.30 81 1014.1
20260830170516 73 186 7.0 18.0 0.07 0.30 0.30 82 1014.1
20260830170017 73 181 10.0 18.0 0.07 0.29 0.28 82 1014.2
20260830165518 73 182 9.0 19.0 0.07 0.29 0.28 84 1014.2
20260830165017 72 187 10.0 19.0 0.07 0.28 0.28 85 1014.2
20260830164517 72 185 7.0 20.0 0.07 0.28 0.28 87 1014.2
20260830164037 71 181 8.0 20.0 0.07 0.27 0.27 87 1014.2
20260830163518 70 183 9.0 18.0 0.07 0.27 0.27 88 1014.3
20260830163017 70 183 8.0 18.0 0.07 0.26 0.26 89 1014.6
20260830162536 69 182 8.0 18.0 0.07 0.25 0.25 90 1014.7
20260830162017 69 185 7.0 19.0 0.07 0.25 0.25 92 1014.8
20260830161538 69 179 8.0 19.0 0.07 0.24 0.24 92 1014.7
20260830161017 69 194 6.0 12.0 0.08 0.24 0.24 93 1014.8
20260830160518 68 162 6.0 13.0 0.07 0.23 0.23 93 1014.6
20260830160037 67 162 6.0 16.0 0.07 0.22 0.22 94 1014.6
20260830155517 66 161 8.0 16.0 0.07 0.22 0.22 94 1014.7
20260830155018 66 152 8.0 14.0 0.07 0.21 0.21 93 1014.6
20260830154516 66 157 6.0 14.0 0.07 0.21 0.21 94 1014.8
20260830154017 66 171 7.0 16.0 0.07 0.20 0.20 94 1015.0
20260830153538 65 163 8.0 16.0 0.07 0.20 0.20 94 1015.0
20260830153018 65 164 8.0 14.0 0.07 0.19 0.19 94 1015.0
20260830152517 65 162 7.0 16.0 0.06 0.18 0.18 94 1015.1
20260830152037 65 165 6.0 16.0 0.07 0.18 0.18 94 1015.3
20260830151537 65 167 6.0 11.0 0.06 0.17 0.17 94 1015.5
20260830151018 65 160 4.0 10.0 0.05 0.16 0.16 94 1015.7
20260830150517 65 181 4.0 11.0 0.06 0.16 0.16 94 1015.8
20260830150017 65 185 5.0 12.0 0.05 0.15 0.15 94 1015.8
20260830145516 65 172 6.0 14.0 0.06 0.15 0.15 94 1015.8
20260830145018 65 190 4.0 14.0 0.05 0.13 0.14 94 1015.9
20260830144517 65 184 6.0 15.0 0.06 0.13 0.14 94 1015.9
20260830144057 65 168 6.0 15.0 0.05 0.12 0.13 94 1015.8
20260830143518 65 164 5.0 10.0 0.05 0.12 0.13 94 1016.0
20260830143018 65 158 4.0 9.0 0.05 0.11 0.12 94 1016.2
20260830142517 64 160 5.0 10.0 0.05 0.11 0.12 94 1016.5
20260830142016 64 164 5.0 10.0 0.05 0.10 0.11 94 1016.6
20260830141516 64 177 3.0 9.0 0.05 0.10 0.11 94 1016.8
20260830141016 64 162 5.0 9.0 0.05 0.10 0.11 94 1016.6
20260830140518 64 159 3.0 7.0 0.05 0.10 0.10 94 1016.6
20260830140017 64 159 2.0 9.0 0.05 0.10 0.10 94 1016.8
20260830135516 64 153 5.0 9.0 0.04 0.09 0.09 94 1016.6
20260830135018 64 155 4.0 8.0 0.05 0.09 0.09 94 1016.8
20260830134518 64 163 3.0 7.0 0.04 0.08 0.08 94 1017.0
20260830134016 64 145 4.0 8.0 0.04 0.08 0.08 94 1016.9
20260830133516 64 147 3.0 8.0 0.05 0.08 0.08 94 1017.0
20260830133017 64 151 3.0 8.0 0.04 0.07 0.07 94 1016.9
20260830132516 64 157 3.0 8.0 0.04 0.07 0.07 94 1017.0
20260830132016 64 149 3.0 6.0 0.03 0.06 0.06 93 1017.0
20260830131558 64 134 2.0 4.0 0.03 0.06 0.06 93 1016.9
20260830131017 64 136 2.0 5.0 0.04 0.06 0.06 93 1017.1
20260830130516 64 135 3.0 7.0 0.03 0.05 0.05 93 1017.1
20260830130058 64 135 4.0 7.0 0.03 0.05 0.05 93 1017.1
20260830125516 64 151 3.0 6.0 0.03 0.05 0.05 93 1017.1
20260830125036 64 141 2.0 4.0 0.02 0.04 0.04 93 1017.1
20260830124517 64 135 1.0 4.0 0.02 0.04 0.04 93 1017.0
20260830124018 64 125 1.0 3.0 0.02 0.04 0.04 92 1017.1
20260830123518 64 123 2.0 3.0 0.01 0.03 0.03 92 1016.9
20260830123016 64 123 2.0 3.0 0.01 0.03 0.03 92 1016.9
20260830122516 64 94 1.0 4.0 0.01 0.03 0.03 92 1016.8
20260830122016 64 115 2.0 4.0 0.01 0.03 0.03 92 1016.6
20260830121516 65 116 3.0 4.0 0.01 0.03 0.03 92 1016.6
20260830121016 65 118 3.0 4.0 0.00 0.02 0.02 91 1016.5
20260830120516 65 143 3.0 4.0 0.00 0.02 0.02 91 1016.6
20260830120016 65 111 2.0 5.0 0.01 0.02 0.02 91 1016.5
20260830115536 65 50 3.0 5.0 0.01 0.02 0.02 90 1016.8
20260830115016 65 66 3.0 5.0 0.01 0.02 0.02 90 1016.6
20260830114537 65 55 3.0 7.0 0.01 0.02 0.02 90 1016.5
20260830114016 65 17 4.0 7.0 0.01 0.02 0.02 89 1016.2
20260830113516 66 12 2.0 4.0 0.01 0.02 0.02 89 1015.9
20260830113016 66 2 1.0 3.0 0.01 0.02 0.02 88 1015.6
20260830112516 66 0.0 3.0 0.01 0.02 0.02 87 1015.4
20260830112017 66 83 1.0 4.0 0.01 0.02 0.02 87 1015.1
20260830111517 66 79 2.0 4.0 0.01 0.02 0.02 86 1015.0
20260830111016 67 80 2.0 4.0 0.01 0.02 0.02 85 1015.0
20260830110516 67 108 1.0 3.0 0.01 0.02 0.02 84 1015.0
20260830110056 67 144 0.0 3.0 0.00 0.01 0.01 83 1014.9
20260830105516 67 143 1.0 4.0 0.00 0.01 0.01 83 1015.0
20260830105037 67 171 2.0 6.0 0.00 0.01 0.01 82 1014.8
20260830104517 67 165 3.0 12.0 0.00 0.01 0.01 81 1014.8
20260830104016 67 153 4.0 12.0 0.00 0.01 0.01 81 1014.7
20260830103516 67 171 3.0 10.0 0.00 0.01 0.01 81 1014.6
20260830103016 67 160 4.0 10.0 0.01 0.01 0.01 81 1014.3
20260830102517 67 170 5.0 12.0 0.01 0.01 0.01 82 1014.3
20260830102037 67 158 5.0 12.0 0.01 0.01 0.01 82 1014.3
20260830101516 67 159 5.0 11.0 0.01 0.01 0.01 83 1014.3
20260830101017 67 157 6.0 10.0 0.01 0.01 0.01 83 1014.3
20260830100516 67 159 4.0 9.0 0.01 0.01 0.01 83 1014.5
20260830100036 67 164 5.0 9.0 0.01 0.01 0.01 84 1014.7
20260830095516 66 168 4.0 8.0 0.01 0.01 0.01 84 1014.8
20260830095016 66 164 3.0 8.0 0.01 0.01 0.01 84 1014.7
20260830094516 66 164 4.0 8.0 0.01 0.01 0.01 84 1014.8
20260830094017 67 155 3.0 8.0 0.01 0.01 0.01 84 1014.8
20260830093516 67 159 4.0 8.0 0.01 0.01 0.01 83 1014.9
20260830093019 67 158 3.0 6.0 0.00 0.00 0.00 83 1015.1
20260830092516 67 170 1.0 4.0 0.00 0.00 0.00 83 1015.4
20260830092017 67 133 1.0 7.0 0.00 0.00 0.00 82 1015.5
20260830091517 67 131 2.0 7.0 0.00 0.00 0.00 82 1015.5
20260830091036 67 154 2.0 6.0 0.00 0.00 0.00 81 1015.7
20260830090516 67 184 1.0 4.0 0.00 0.00 0.00 81 1015.9
20260830090016 67 174 1.0 6.0 0.00 0.00 0.00 81 1016.0
20260830085516 67 176 3.0 6.0 0.00 0.00 0.00 82 1015.9
20260830085017 67 159 2.0 5.0 0.00 0.00 0.00 82 1015.8
20260830084516 67 180 1.0 4.0 0.00 0.00 0.00 82 1015.9
20260830084016 67 185 1.0 4.0 0.00 0.00 0.00 83 1015.9
20260830083516 66 189 0.0 4.0 0.00 0.00 0.00 83 1016.0
20260830083015 66 165 0.0 5.0 0.00 0.00 0.00 84 1015.9
20260830082516 66 153 1.0 5.0 0.00 0.00 0.00 85 1015.8
20260830082016 66 147 2.0 5.0 0.00 0.00 0.00 86 1015.8
20260830081536 66 140 2.0 4.0 0.00 0.00 0.00 87 1015.8
20260830081016 66 138 2.0 4.0 0.00 0.00 0.00 87 1015.7
20260830080517 66 127 2.0 4.0 0.00 0.00 0.00 88 1015.8
20260830080016 65 132 2.0 4.0 0.00 0.00 0.00 88 1015.8
20260830075516 65 130 2.0 4.0 0.00 0.00 0.00 88 1015.8
20260830075015 65 134 1.0 4.0 0.00 0.00 0.00 88 1015.9
20260830074516 66 127 2.0 3.0 0.00 0.00 0.00 88 1015.9
20260830074017 66 136 1.0 3.0 0.00 0.00 0.00 88 1015.9
20260830073515 66 124 2.0 3.0 0.00 0.00 0.00 88 1015.9